Location: Newark
(25.6108°S, 54.5803°W)
Time: 10:14:51
(UTC+00:00)

Transit 2A - Pass Details

Date: 05 November 2020
Orbit: 595 x 964 km, 66.7° (Epoch: 28 November)

Event Time Altitude Azimuth Distance (km) Brightness Sun altitude
Rises 00:01:30 0° 197° (SSW) 3,256 10.0 -26.1°
Reaches altitude 10° 00:03:53 10° 192° (SSW) 2,381 9.1 -26.5°
Enters shadow 00:08:43 51° 136° (SE) 1,061 6.6 -27.4°
